Regional Weather Roundup
Issued by NWS

Home | Current Version | Previous Version | Text Only | Print | Product List | Glossary On
Versions: 1 2 3 4 5 6 7 8 9 10 11 12 13 14 15 16 17 18 19 20 21 22 23 24 25 26 27 28 29 30 31 32 33 34 35 36 37 38 39 40 41 42 43 44 45 46 47 48 49 50
625
ASUS45 KABQ 221510
RWRNM
NEW MEXICO REGIONAL WEATHER ROUNDUP
NATIONAL WEATHER SERVICE ALBUQUERQUE NM
800 AM MST WED NOV 22 2017

NOTE: "FAIR" MEANS FEW OR NO CLOUDS BELOW 12,000 FEET AGL WITH NO
       SIGNIFICANT WEATHER OR OBSTRUCTIONS TO VISION.

      THIS PRODUCT IS RELEASED AS TWO VERSIONS.  ONE VERSION NEAR
      THE TOP OF THE HOUR CONTAINING PRELIMINARY DATA FROM ALBUQUERQUE
      AND OTHER STATIONS.  A FINAL VERSION WITH ADDITIONAL DATA IS
      ISSUED ABOUT 10 MINUTES AFTER THE HOUR.

NMZ501-503-504-510>518-221600-
NORTHWEST PLATEAU/NORTHCENTRAL MOUNTAINS

CITY           SKY/WX    TMP DP  RH WIND       PRES   REMARKS
FARMINGTON     FAIR      31  21  66 E7        30.42R WCI  24
LOS ALAMOS     FAIR      37  28  68 N7        30.44S WCI  32
SANTA FE       FAIR      35  28  75 N6        30.42S WCI  30
TAOS           FAIR      32  23  69 N3        30.47
ANGEL FIRE     FAIR      28  23  84 CALM      30.47R

$$
NMZ402-403-502-505>509-221600-
WESTCENTRAL MOUNTAINS/SOUTHWEST MOUNTAINS

CITY           SKY/WX    TMP DP  RH WIND       PRES   REMARKS
GALLUP         FAIR      26  18  71 CALM      30.46R
GRANTS         FAIR      32  22  67 NW10G17   30.47R WCI  23
SILVER CITY    FAIR      43  20  40 N3        30.42R

$$
NMZ407-409-411-412-221600-
SOUTHERN DESERTS

CITY           SKY/WX    TMP DP  RH WIND       PRES   REMARKS
DEMING         FAIR      46  24  42 E7        30.40R
LAS CRUCES     FAIR      47  26  43 CALM      30.42S
ALAMOGORDO     FAIR      46  25  42 N6        30.43R
T OR C         FAIR      44  20  38 W5        30.41R

$$
NMZ519>523-221600-
CENTRAL VALLEYS/CENTRAL HIGHLANDS

CITY           SKY/WX    TMP DP  RH WIND       PRES   REMARKS
ALBUQUERQUE    PTSUNNY   38  27  64 N3        30.42R
DOUBLE EAGLE   MOSUNNY   30  23  74 CALM      30.43R
MORIARTY ARPT  FAIR      29  21  70 CALM      30.43S
CLINES CORNERS FAIR      35  25  66 NW15      30.40R WCI  25
BELEN          FAIR      37  24  59 CALM      30.44R
SOCORRO        FAIR      36  22  56 CALM      30.43R

$$
NMZ524>526-539-540-221600-
SOUTHCENTRAL MOUNTAINS

CITY           SKY/WX    TMP DP  RH WIND       PRES   REMARKS
RUIDOSO        FAIR      39  21  48 NW8       30.44R WCI  34

$$
NMZ527>531-221600-
NORTHEAST HIGHLANDS/NORTHEAST PLAINS

CITY           SKY/WX    TMP DP  RH WIND       PRES   REMARKS
LAS VEGAS      FAIR      33  26  75 N8        30.37R WCI  26
RATON          FAIR      27  23  85 NE5       30.36R WCI  22
CLAYTON        FAIR      40  28  62 W14       30.29S WCI  32

$$
NMZ532>537-221600-
EASTCENTRAL PLAINS

CITY           SKY/WX    TMP DP  RH WIND       PRES   REMARKS
SANTA ROSA     FAIR      34  26  74 S5        30.36F WCI  30
TUCUMCARI      FAIR      38  27  64 CALM      30.35S
CANNON AFB     FAIR      40  28  63 SW6       30.40R
CLOVIS AIRPORT FAIR      38  28  67 W5        30.41R WCI  34

$$
NMZ028-029-538-221600-
SOUTHEAST PLAINS

CITY           SKY/WX    TMP DP  RH WIND       PRES   REMARKS
ROSWELL        FAIR      39  26  59 CALM      30.42R
ARTESIA        FAIR      43  27  52 S7        30.43R
CARLSBAD       FAIR      44  29  55 SE7       30.42R
HOBBS          SUNNY     43  27  52 CALM      30.45R


$$




USA.gov is the U.S. government's official web portal to all federal, state and local government web resources and services.